Zurück zum Katalog

PEGASUS R/B

AktivLEO
NORAD 27859·ROCKET BODY·🇺🇸 United States

Gestartet Aug 13, 2003 von Vandenberg Space Force Base

Loading…

Nächste Überflüge (nächste 24 Stunden)

TLE

AktuellSource: Space-Track

Epoche: Sep 14, 2026, 11:18 UTC

1 27859U 03036B   26257.47100339  .00000775  00000-0  88881-4 0  9998
2 27859  73.9227 275.4411 0006889 348.1947  11.9070 14.87888028247065

Verfolge PEGASUS R/B in Echtzeit mit AllMySat

Download on the App Store